This demonstration page uses our WeatherBlox Daily Observations layout. Learn more.

Left ArrowRight Arrow

39.12711, -84.51439

Hourly Observations for June 10, 2018

Temp ( °F °C ) Dew Point ( °F °C ) Humidity (%) Winds ( mph kmh ) Pressure ( in mb ) Visibility ( mi km ) Precip ( " mm )
12:53 am 00:53 Clear 70 21.1 69 20.6 97 97 W 3 6 29.96 1015 9 14 N/A
1:53 am 01:53 Clear 70 21.1 69 20.6 97 97 S 6 9 29.95 1014 8 13 N/A
2:53 am 02:53 Clear 71 21.7 68 20 90 90 SW 8 13 29.94 1014 10 16 N/A
3:53 am 03:53 Clear 70 21.1 67 19.4 90 90 WSW 3 6 29.93 1013 10 16 N/A
4:53 am 04:53 Clear 67 19.4 66 18.9 97 97 SW 6 9 29.93 1014 8 13 N/A
5:53 am 05:53 Clear 67 19.4 66 18.9 97 97 SSW 3 6 29.94 1014 10 16 N/A
6:53 am 06:53 Sunny 67 19.4 66 18.9 97 97 N N/A 29.94 1014 7 11 N/A
7:53 am 07:53 Sunny 71 21.7 68 20 90 90 N N/A 29.95 1014 8 13 N/A
8:53 am 08:53 Sunny 74 23.3 69 20.6 85 85 VRB 5 7 29.97 1015 10 16 N/A
9:53 am 09:53 Mostly Cloudy 77 25 67 19.4 71 71 WNW 9 15 29.99 1016 10 16 N/A
10:53 am 10:53 Sunny 79 26.1 69 20.6 72 72 S 9 15 29.93 1014 10 16 N/A
11:53 am 11:53 Sunny 82 27.8 69 20.6 65 65 S 13 20 29.88 1012 10 16 N/A
12:53 pm 12:53 Partly Cloudy 80 26.7 67 19.4 64 64 WSW 10 17 29.93 1014 10 16 N/A
1:53 pm 13:53 Partly Cloudy 82 27.8 68 20 63 63 W 9 15 29.93 1014 10 16 N/A
2:53 pm 14:53 Mostly Cloudy with Light Rain 78 25.6 65 18.3 64 64 NW 13 20 29.96 1015 10 16 N/A
3:53 pm 15:53 Partly Cloudy 75 23.9 66 18.9 74 74 VRB 5 7 29.88 1012 10 16 N/A
4:53 pm 16:53 Partly Cloudy 80 26.7 68 20 67 67 SSW 9 15 29.83 1010 10 16 N/A
5:53 pm 17:53 Partly Cloudy 78 25.6 66 18.9 67 67 SW 7 11 29.83 1010 10 16 N/A
6:53 pm 18:53 Partly Cloudy 77 25 67 19.4 71 71 SW 6 9 29.85 1011 10 16 N/A
7:53 pm 19:53 Mostly Cloudy 77 25 68 20 74 74 WNW 5 7 29.88 1012 10 16 N/A
8:53 pm 20:53 Partly Cloudy with Light Rain 74 23.3 67 19.4 79 79 S 6 9 29.83 1010 10 16 N/A
9:53 pm 21:53 Mostly Clear 73 22.8 67 19.4 81 81 SSW 9 15 29.81 1010 10 16 N/A
10:53 pm 22:53 Clear 72 22.2 68 20 87 87 WSW 7 11 29.86 1011 10 16 N/A
11:28 pm 23:28 Mostly Cloudy 72 22.2 68 20 87 87 WSW 5 7 29.88 1012 10 16 N/A
11:53 pm 23:53 Cloudy 72 22.2 68 20 87 87 W 6 9 29.86 1011 10 16 N/A

Powered by AerisWeather